loading
|

THOR ABLESTAR DEB, 552

Orbit data source: Space-Track

THOR ABLESTAR DEB, 552 is space debris in LEO originally from a launch on Thu, 29 Jun 1961 UTC launched from the Air Force Eastern Test Range (AFETR). Debris objects in space refer to the collection of defunct objects orbiting the Earth. Examples of debris include non-operational satellites, rocket bodies, and fragments generated from explosions, collisions, or faulty payload assembly.

Loading next visibility...
Loading greatness...
THOR ABLESTAR DEB details
Identifier
552, 1961-015GM
Orbit
LEO
Last TLE update20 hours ago
Origin
Flag of USUSAF SSD (US)
ManufacturerUnknown
Mission statusUnknown
MissionUnknown
Bus & MotorUnknown
MassUnknown
Launch date (UTC)
1961-06-29 (63 years ago)
Launch vehicleUnknown
Launch site
Air Force Eastern Test Range (AFETR)
Object type
Payload
Rocket body
Debris
Radar Cross SectionSmall (<0.1 m²)

Expand to show TLE details & history

TLE from 20 hours ago
0 THOR ABLESTAR DEB
1   552U 61015GM  24250.87644341  .00004164  00000-0  29244-2 0  9993
2   552  67.7379 153.0664 0111394 215.8794 143.4779 13.96111232166460
Epoch: 2024-09-06T21:02Z
Definitive object data (Epoch: 2024-09-06T21:02:04.71Z)
Latitude-0.00003°
Longitude-148.89593°
Altitude974.986 km
Speed7.331 km/s
True Right ascension10h 12m 15s
True Declination0° 00' 00"
Sunlit
Object was in daylight at TLE epoch
Predictive object data (real-time)
Latitude-32.90928°
Longitude-166.19496°
Altitude944.728 km
Speed7.366 km/s
Apparent Right ascension07h 04m 05s
Apparent Declination-79° 20' 28"
Sunlit
Object is in daylight
Predictive observer data (real-time)
Local Sidereal Time09:38:17
Azimuth187.754° SSW
Elevation-31.309°
Doppler factor1
Orbital elements
Apogee986.712 km
Perigee824.44 km
Semi-major axis7,283.713 km
Eccentricity0.0111394
Inclination67.7379°
RAAN153.0664°
Arg. of periapsis215.8794°
True anomaly144.22914°
Mean anomaly143.4779°
Eccentric anomaly143.85436°
Mean motion3.49152 °/min
BSTAR0.0029244
Period103.11 mins
No data available

THOR ABLESTAR DEB Visibility forecast

Observer location: 39.9160978°, -105.1181434

THOR ABLESTAR DEB is not visible in the next 10 days
Span
Click to sort rows by Start time (UTC) header in descending order
Start Az.
Max El. time (UTC)
Max El. Az.
Max El.
End time (UTC)
End Az.